This is the latest recevied weather packets stored in our database for station/object W5ZYX. If no packets are shown the sender has not sent any weather packets the latest 1 day(s).
| Time | Temp. | Humidity | Pressure | Rain* | Wind** | Luminosity | Snow |
|---|---|---|---|---|---|---|---|
| 1778118380 | 17.22° C | 86% | 1013.6 hPa | 0 mm | - | - | - |
| 1778118036 | 17.22° C | 86% | 1013.5 hPa | 0 mm | - | - | - |
| 1778117139 | 17.22° C | 86% | 1013 hPa | 0 mm | - | - | - |
| 1778116839 | 17.22° C | 86% | 1013.1 hPa | 0 mm | - | - | - |
| 1778116558 | 17.22° C | 86% | 1012.8 hPa | 0 mm | - | - | - |
| 1778115938 | 17.22° C | 85% | 1012.7 hPa | 0 mm | - | - | - |
| 1778115649 | 17.22° C | 85% | 1012.5 hPa | 0 mm | - | - | - |
| 1778115336 | 17.78° C | 85% | 1012.4 hPa | 0 mm | - | - | - |
| 1778114437 | 17.78° C | 85% | 1012.4 hPa | 0 mm | - | - | - |
| 1778114136 | 17.78° C | 85% | 1012.4 hPa | 0 mm | - | - | - |
| 1778112960 | 18.33° C | 84% | 1012.1 hPa | 0 mm | - | - | - |
| 1778112639 | 18.33° C | 84% | 1012.2 hPa | 0 mm | - | - | - |
| 1778111738 | 18.89° C | 83% | 1012.1 hPa | 0 mm | - | - | - |
| 1778109940 | 20° C | 82% | 1011.7 hPa | 0 mm | - | - | - |
| 1778109349 | 20° C | 81% | 1011.7 hPa | 0 mm | - | - | - |
| 1778108739 | 20° C | 81% | 1011.7 hPa | 0 mm | - | - | - |
| 1778108137 | 20.56° C | 81% | 1011.6 hPa | 0 mm | - | - | - |
| 1778105760 | 21.11° C | 81% | 1011.2 hPa | 0 mm | - | - | - |
| 1778104539 | 21.11° C | 81% | 1010.9 hPa | 0 mm | - | - | - |
| 1778101536 | 23.33° C | 83% | 1010.8 hPa | 0 mm | - | - | - |
| 1778100347 | 23.89° C | 83% | 1010.7 hPa | 0 mm | - | - | - |
| 1778099453 | 23.89° C | 81% | 1010.8 hPa | 0 mm | - | - | - |
| 1778098547 | 24.44° C | 80% | 1010.8 hPa | 0 mm | - | - | - |
| 1778096439 | 23.33° C | 83% | 1010.5 hPa | 0 mm | - | - | - |
| 1778095236 | 22.78° C | 83% | 1010.6 hPa | 0 mm | - | - | - |
* Rain latest hour (hover to see other rain measurements)
** Current wind speed in m/s (hover to see current wind gust speed)